Multibeam Report for RR1412


Ship Name: Roger Revelle
Chief Scientist: Castillo, Pat
Scripps Institution of Oceanography
Source Organization: Rolling Deck to Repository
Start Date: 2014-10-29
End Date: 2014-11-23


View ISO Metadata

Visit the full NCEI Bathymetry Viewer


Multibeam Bathymetry

Cruise Details

Project: Geochemical variation beneath the Izu-Bonin arc and implications for the generation of arc magmas
Instrument: Kongsberg EM122

Data Quality

Number of Files: 740
Number of Records: 129255
BATHYMETRY DATA Quantity Percentage
Number of Beams 53564688 100%
Number of Good Beams 47198643 88.12%
Number of Zero Beams 3260 0.01%
Number of Flagged Beams 6362785 11.88%
AMPLITUDE DATA Quantity Percentage
Number of Beams 53564688 100%
Number of Good Beams 47198643 88.12%
Number of Zero Beams 3260 0.01%
Number of Flagged Beams 6362785 11.88%
SIDESCAN DATA Quantity Percentage
Number of Pixels 132357120 100%
Number of Good Pixels 91150733 68.87%
Number of Zero Pixels 0 0%
Number of Flagged Pixels 41206387 31.13%

Navigation Totals

Total Time: 351.4124 hours
Total Track Length: 6425.0857 km
Average Speed: 18.284 km/hr (9.8726 knots)

Cruise Bounds

Northern Extent: 34.544563
Southern Extent: 13.451947
Western Extent: 142.1082
Eastern Extent: 145.52525

Limits

Minimum Sonar Depth 1.2398 Maximum Sonar Depth 9.7018
Minimum Altitude 437.8033 Maximum Altitude 11086.0693
Minimum Depth 442.9763 Maximum Depth 11483.1602
Minimum Amplitude 0 Maximum Amplitude 12.8
Minimum Sidescan 0 Maximum Sidescan 15.25

File Information

Full Resolution Bathymetry as collected (raw): 736

Files File Size Description
0000_20141029_075637_revelle.all.mb58.gz 39.15MB Kongsberg multibeam vendor format
0001_20141029_082635_revelle.all.mb58.gz 34.05MB Kongsberg multibeam vendor format
0002_20141029_085639_revelle.all.mb58.gz 31.92MB Kongsberg multibeam vendor format
0003_20141029_092638_revelle.all.mb58.gz 31.57MB Kongsberg multibeam vendor format
0004_20141029_095642_revelle.all.mb58.gz 31.78MB Kongsberg multibeam vendor format
0005_20141029_102642_revelle.all.mb58.gz 31.59MB Kongsberg multibeam vendor format
0006_20141029_105628_revelle.all.mb58.gz 32.18MB Kongsberg multibeam vendor format
0007_20141029_112627_revelle.all.mb58.gz 32.78MB Kongsberg multibeam vendor format
0008_20141029_115635_revelle.all.mb58.gz 31.36MB Kongsberg multibeam vendor format
0009_20141029_122630_revelle.all.mb58.gz 31.56MB Kongsberg multibeam vendor format
0010_20141029_125626_revelle.all.mb58.gz 31.72MB Kongsberg multibeam vendor format
0011_20141029_132637_revelle.all.mb58.gz 31.30MB Kongsberg multibeam vendor format
0012_20141029_135628_revelle.all.mb58.gz 30.99MB Kongsberg multibeam vendor format
0013_20141029_142626_revelle.all.mb58.gz 31.45MB Kongsberg multibeam vendor format
0014_20141029_145628_revelle.all.mb58.gz 31.05MB Kongsberg multibeam vendor format
0015_20141029_152641_revelle.all.mb58.gz 31.53MB Kongsberg multibeam vendor format
0016_20141029_155641_revelle.all.mb58.gz 31.16MB Kongsberg multibeam vendor format
0017_20141029_162625_revelle.all.mb58.gz 30.99MB Kongsberg multibeam vendor format
0018_20141029_165634_revelle.all.mb58.gz 31.00MB Kongsberg multibeam vendor format
0019_20141029_172631_revelle.all.mb58.gz 31.45MB Kongsberg multibeam vendor format
0020_20141029_175632_revelle.all.mb58.gz 31.53MB Kongsberg multibeam vendor format
0021_20141029_182631_revelle.all.mb58.gz 31.37MB Kongsberg multibeam vendor format
0022_20141029_185628_revelle.all.mb58.gz 31.73MB Kongsberg multibeam vendor format
0023_20141029_192636_revelle.all.mb58.gz 30.81MB Kongsberg multibeam vendor format
0024_20141029_195623_revelle.all.mb58.gz 30.93MB Kongsberg multibeam vendor format
0025_20141029_202627_revelle.all.mb58.gz 31.05MB Kongsberg multibeam vendor format
0026_20141029_205641_revelle.all.mb58.gz 30.81MB Kongsberg multibeam vendor format
0027_20141029_212632_revelle.all.mb58.gz 31.43MB Kongsberg multibeam vendor format
0028_20141029_215637_revelle.all.mb58.gz 30.73MB Kongsberg multibeam vendor format
0029_20141029_222628_revelle.all.mb58.gz 31.56MB Kongsberg multibeam vendor format
0030_20141029_225629_revelle.all.mb58.gz 31.93MB Kongsberg multibeam vendor format
0031_20141029_232631_revelle.all.mb58.gz 31.57MB Kongsberg multibeam vendor format
0032_20141029_235633_revelle.all.mb58.gz 31.27MB Kongsberg multibeam vendor format
0033_20141030_002628_revelle.all.mb58.gz 31.24MB Kongsberg multibeam vendor format
0034_20141030_005623_revelle.all.mb58.gz 30.96MB Kongsberg multibeam vendor format
0035_20141030_012635_revelle.all.mb58.gz 31.02MB Kongsberg multibeam vendor format
0036_20141030_015622_revelle.all.mb58.gz 31.24MB Kongsberg multibeam vendor format
0037_20141030_022624_revelle.all.mb58.gz 31.43MB Kongsberg multibeam vendor format
0038_20141030_025630_revelle.all.mb58.gz 31.21MB Kongsberg multibeam vendor format
0039_20141030_032634_revelle.all.mb58.gz 31.31MB Kongsberg multibeam vendor format
0040_20141030_035622_revelle.all.mb58.gz 31.74MB Kongsberg multibeam vendor format
0041_20141030_042625_revelle.all.mb58.gz 31.14MB Kongsberg multibeam vendor format
0042_20141030_045621_revelle.all.mb58.gz 31.05MB Kongsberg multibeam vendor format
0043_20141030_052629_revelle.all.mb58.gz 31.83MB Kongsberg multibeam vendor format
0044_20141030_055633_revelle.all.mb58.gz 31.22MB Kongsberg multibeam vendor format
0045_20141030_062630_revelle.all.mb58.gz 30.81MB Kongsberg multibeam vendor format
0046_20141030_065622_revelle.all.mb58.gz 31.38MB Kongsberg multibeam vendor format
0047_20141030_072634_revelle.all.mb58.gz 31.35MB Kongsberg multibeam vendor format
0048_20141030_075637_revelle.all.mb58.gz 31.57MB Kongsberg multibeam vendor format
0049_20141030_082634_revelle.all.mb58.gz 31.07MB Kongsberg multibeam vendor format
0050_20141030_085619_revelle.all.mb58.gz 31.26MB Kongsberg multibeam vendor format
0051_20141030_092630_revelle.all.mb58.gz 31.14MB Kongsberg multibeam vendor format
0052_20141030_095624_revelle.all.mb58.gz 31.62MB Kongsberg multibeam vendor format
0053_20141030_102631_revelle.all.mb58.gz 31.92MB Kongsberg multibeam vendor format
0054_20141030_105626_revelle.all.mb58.gz 31.78MB Kongsberg multibeam vendor format
0055_20141030_112622_revelle.all.mb58.gz 31.61MB Kongsberg multibeam vendor format
0056_20141030_115630_revelle.all.mb58.gz 31.56MB Kongsberg multibeam vendor format
0057_20141030_122634_revelle.all.mb58.gz 31.29MB Kongsberg multibeam vendor format
0058_20141030_125622_revelle.all.mb58.gz 31.87MB Kongsberg multibeam vendor format
0059_20141030_132635_revelle.all.mb58.gz 31.27MB Kongsberg multibeam vendor format
0060_20141030_135635_revelle.all.mb58.gz 31.45MB Kongsberg multibeam vendor format
0061_20141030_142630_revelle.all.mb58.gz 30.71MB Kongsberg multibeam vendor format
0062_20141030_145624_revelle.all.mb58.gz 31.93MB Kongsberg multibeam vendor format
0063_20141030_152618_revelle.all.mb58.gz 31.21MB Kongsberg multibeam vendor format
0064_20141030_155625_revelle.all.mb58.gz 31.31MB Kongsberg multibeam vendor format
0065_20141030_162630_revelle.all.mb58.gz 30.85MB Kongsberg multibeam vendor format
0066_20141030_165622_revelle.all.mb58.gz 30.64MB Kongsberg multibeam vendor format
0067_20141030_172620_revelle.all.mb58.gz 30.68MB Kongsberg multibeam vendor format
0068_20141030_175630_revelle.all.mb58.gz 30.59MB Kongsberg multibeam vendor format
0069_20141030_182631_revelle.all.mb58.gz 31.41MB Kongsberg multibeam vendor format
0070_20141030_185629_revelle.all.mb58.gz 30.74MB Kongsberg multibeam vendor format
0071_20141030_192625_revelle.all.mb58.gz 30.46MB Kongsberg multibeam vendor format
0072_20141030_195617_revelle.all.mb58.gz 30.52MB Kongsberg multibeam vendor format
0073_20141030_202619_revelle.all.mb58.gz 30.66MB Kongsberg multibeam vendor format
0074_20141030_205628_revelle.all.mb58.gz 31.58MB Kongsberg multibeam vendor format
0075_20141030_212619_revelle.all.mb58.gz 32.01MB Kongsberg multibeam vendor format
0076_20141030_215620_revelle.all.mb58.gz 32.26MB Kongsberg multibeam vendor format
0077_20141030_222626_revelle.all.mb58.gz 33.41MB Kongsberg multibeam vendor format
0078_20141030_225619_revelle.all.mb58.gz 34.98MB Kongsberg multibeam vendor format
0079_20141030_232623_revelle.all.mb58.gz 32.07MB Kongsberg multibeam vendor format
0080_20141030_235629_revelle.all.mb58.gz 31.46MB Kongsberg multibeam vendor format
0081_20141031_002625_revelle.all.mb58.gz 31.55MB Kongsberg multibeam vendor format
0082_20141031_005623_revelle.all.mb58.gz 32.55MB Kongsberg multibeam vendor format
0083_20141031_012623_revelle.all.mb58.gz 33.14MB Kongsberg multibeam vendor format
0084_20141031_015623_revelle.all.mb58.gz 36.17MB Kongsberg multibeam vendor format
0085_20141031_022616_revelle.all.mb58.gz 36.69MB Kongsberg multibeam vendor format
0086_20141031_025617_revelle.all.mb58.gz 48.35MB Kongsberg multibeam vendor format
0087_20141031_032617_revelle.all.mb58.gz 35.25MB Kongsberg multibeam vendor format
0088_20141031_035616_revelle.all.mb58.gz 34.34MB Kongsberg multibeam vendor format
0089_20141031_042623_revelle.all.mb58.gz 33.69MB Kongsberg multibeam vendor format
0090_20141031_045620_revelle.all.mb58.gz 33.85MB Kongsberg multibeam vendor format
0091_20141031_052621_revelle.all.mb58.gz 32.86MB Kongsberg multibeam vendor format
0092_20141031_055619_revelle.all.mb58.gz 32.28MB Kongsberg multibeam vendor format
0093_20141031_062619_revelle.all.mb58.gz 32.29MB Kongsberg multibeam vendor format
0094_20141031_065623_revelle.all.mb58.gz 31.65MB Kongsberg multibeam vendor format
0095_20141031_072612_revelle.all.mb58.gz 31.21MB Kongsberg multibeam vendor format
0096_20141031_075618_revelle.all.mb58.gz 32.02MB Kongsberg multibeam vendor format
0097_20141031_082620_revelle.all.mb58.gz 31.12MB Kongsberg multibeam vendor format
0098_20141031_085616_revelle.all.mb58.gz 31.26MB Kongsberg multibeam vendor format
0099_20141031_092622_revelle.all.mb58.gz 30.06MB Kongsberg multibeam vendor format
0100_20141031_095614_revelle.all.mb58.gz 30.78MB Kongsberg multibeam vendor format
0101_20141031_102615_revelle.all.mb58.gz 30.63MB Kongsberg multibeam vendor format
0102_20141031_105629_revelle.all.mb58.gz 30.31MB Kongsberg multibeam vendor format
0103_20141031_112616_revelle.all.mb58.gz 30.87MB Kongsberg multibeam vendor format
0104_20141031_115622_revelle.all.mb58.gz 30.75MB Kongsberg multibeam vendor format
0105_20141031_122616_revelle.all.mb58.gz 30.61MB Kongsberg multibeam vendor format
0106_20141031_125620_revelle.all.mb58.gz 29.99MB Kongsberg multibeam vendor format
0107_20141031_132617_revelle.all.mb58.gz 29.84MB Kongsberg multibeam vendor format
0108_20141031_135616_revelle.all.mb58.gz 29.84MB Kongsberg multibeam vendor format
0109_20141031_142615_revelle.all.mb58.gz 29.71MB Kongsberg multibeam vendor format
0110_20141031_145613_revelle.all.mb58.gz 29.99MB Kongsberg multibeam vendor format
0111_20141031_152615_revelle.all.mb58.gz 29.77MB Kongsberg multibeam vendor format
0112_20141031_155618_revelle.all.mb58.gz 29.44MB Kongsberg multibeam vendor format
0113_20141031_162621_revelle.all.mb58.gz 28.97MB Kongsberg multibeam vendor format
0114_20141031_165617_revelle.all.mb58.gz 29.12MB Kongsberg multibeam vendor format
0115_20141031_172626_revelle.all.mb58.gz 28.88MB Kongsberg multibeam vendor format
0116_20141031_175626_revelle.all.mb58.gz 28.33MB Kongsberg multibeam vendor format
0117_20141031_182610_revelle.all.mb58.gz 28.55MB Kongsberg multibeam vendor format
0118_20141031_185611_revelle.all.mb58.gz 29.64MB Kongsberg multibeam vendor format
0119_20141031_192628_revelle.all.mb58.gz 29.27MB Kongsberg multibeam vendor format
0120_20141031_195609_revelle.all.mb58.gz 30.40MB Kongsberg multibeam vendor format
0121_20141031_202616_revelle.all.mb58.gz 30.43MB Kongsberg multibeam vendor format
0122_20141031_205620_revelle.all.mb58.gz 30.69MB Kongsberg multibeam vendor format
0123_20141031_212624_revelle.all.mb58.gz 31.31MB Kongsberg multibeam vendor format
0124_20141031_215608_revelle.all.mb58.gz 32.11MB Kongsberg multibeam vendor format
0125_20141031_222609_revelle.all.mb58.gz 32.21MB Kongsberg multibeam vendor format
0126_20141031_225607_revelle.all.mb58.gz 32.60MB Kongsberg multibeam vendor format
0127_20141031_232612_revelle.all.mb58.gz 30.73MB Kongsberg multibeam vendor format
0128_20141031_235611_revelle.all.mb58.gz 30.74MB Kongsberg multibeam vendor format
0129_20141101_002622_revelle.all.mb58.gz 30.12MB Kongsberg multibeam vendor format
0130_20141101_005608_revelle.all.mb58.gz 30.06MB Kongsberg multibeam vendor format
0131_20141101_012628_revelle.all.mb58.gz 29.63MB Kongsberg multibeam vendor format
0132_20141101_015624_revelle.all.mb58.gz 30.10MB Kongsberg multibeam vendor format
0133_20141101_022620_revelle.all.mb58.gz 26.89MB Kongsberg multibeam vendor format
0135_20141101_045627_revelle.all.mb58.gz 306.8KB Kongsberg multibeam vendor format
0136_20141101_091259_revelle.all.mb58.gz 30.80MB Kongsberg multibeam vendor format
0137_20141101_094250_revelle.all.mb58.gz 31.10MB Kongsberg multibeam vendor format
0138_20141101_101248_revelle.all.mb58.gz 32.47MB Kongsberg multibeam vendor format
0139_20141101_104247_revelle.all.mb58.gz 30.61MB Kongsberg multibeam vendor format
0140_20141101_111246_revelle.all.mb58.gz 31.15MB Kongsberg multibeam vendor format
0141_20141101_114248_revelle.all.mb58.gz 30.42MB Kongsberg multibeam vendor format
0142_20141101_121244_revelle.all.mb58.gz 30.48MB Kongsberg multibeam vendor format
0143_20141101_124257_revelle.all.mb58.gz 29.23MB Kongsberg multibeam vendor format
0144_20141101_131245_revelle.all.mb58.gz 30.37MB Kongsberg multibeam vendor format
0145_20141101_134241_revelle.all.mb58.gz 29.92MB Kongsberg multibeam vendor format
0146_20141101_141258_revelle.all.mb58.gz 29.81MB Kongsberg multibeam vendor format
0147_20141101_144252_revelle.all.mb58.gz 29.76MB Kongsberg multibeam vendor format
0148_20141101_151255_revelle.all.mb58.gz 29.81MB Kongsberg multibeam vendor format
0149_20141101_154249_revelle.all.mb58.gz 29.08MB Kongsberg multibeam vendor format
0150_20141101_161244_revelle.all.mb58.gz 29.75MB Kongsberg multibeam vendor format
0151_20141101_164245_revelle.all.mb58.gz 29.36MB Kongsberg multibeam vendor format
0152_20141101_171246_revelle.all.mb58.gz 29.25MB Kongsberg multibeam vendor format
0153_20141101_174252_revelle.all.mb58.gz 29.01MB Kongsberg multibeam vendor format
0154_20141101_181253_revelle.all.mb58.gz 9.84MB Kongsberg multibeam vendor format
0155_20141102_024133_revelle.all.mb58.gz 29.32MB Kongsberg multibeam vendor format
0156_20141102_031124_revelle.all.mb58.gz 29.72MB Kongsberg multibeam vendor format
0157_20141102_034142_revelle.all.mb58.gz 29.60MB Kongsberg multibeam vendor format
0158_20141102_041149_revelle.all.mb58.gz 28.66MB Kongsberg multibeam vendor format
0159_20141102_044122_revelle.all.mb58.gz 29.16MB Kongsberg multibeam vendor format
0160_20141102_051122_revelle.all.mb58.gz 2.60MB Kongsberg multibeam vendor format
0161_20141102_051403_revelle.all.mb58.gz 28.86MB Kongsberg multibeam vendor format
0162_20141102_054354_revelle.all.mb58.gz 29.08MB Kongsberg multibeam vendor format
0163_20141102_061406_revelle.all.mb58.gz 28.78MB Kongsberg multibeam vendor format
0164_20141102_064354_revelle.all.mb58.gz 29.26MB Kongsberg multibeam vendor format
0165_20141102_071400_revelle.all.mb58.gz 29.08MB Kongsberg multibeam vendor format
0166_20141102_074351_revelle.all.mb58.gz 29.34MB Kongsberg multibeam vendor format
0167_20141102_081348_revelle.all.mb58.gz 29.87MB Kongsberg multibeam vendor format
0168_20141102_084409_revelle.all.mb58.gz 29.50MB Kongsberg multibeam vendor format
0169_20141102_091406_revelle.all.mb58.gz 29.46MB Kongsberg multibeam vendor format
0170_20141102_094353_revelle.all.mb58.gz 29.74MB Kongsberg multibeam vendor format
0171_20141102_101359_revelle.all.mb58.gz 29.76MB Kongsberg multibeam vendor format
0172_20141102_104406_revelle.all.mb58.gz 29.51MB Kongsberg multibeam vendor format
0173_20141102_111403_revelle.all.mb58.gz 29.35MB Kongsberg multibeam vendor format
0174_20141102_114400_revelle.all.mb58.gz 29.24MB Kongsberg multibeam vendor format
0175_20141102_121349_revelle.all.mb58.gz 29.72MB Kongsberg multibeam vendor format
0176_20141102_124404_revelle.all.mb58.gz 29.55MB Kongsberg multibeam vendor format
0177_20141102_131408_revelle.all.mb58.gz 26.20MB Kongsberg multibeam vendor format
0178_20141102_215049_revelle.all.mb58.gz 29.76MB Kongsberg multibeam vendor format
0179_20141102_222103_revelle.all.mb58.gz 29.30MB Kongsberg multibeam vendor format
0180_20141102_225052_revelle.all.mb58.gz 29.30MB Kongsberg multibeam vendor format
0181_20141102_232055_revelle.all.mb58.gz 8.64MB Kongsberg multibeam vendor format
0182_20141102_232946_revelle.all.mb58.gz 29.05MB Kongsberg multibeam vendor format
0183_20141102_235948_revelle.all.mb58.gz 29.10MB Kongsberg multibeam vendor format
0184_20141103_002947_revelle.all.mb58.gz 29.41MB Kongsberg multibeam vendor format
0185_20141103_005952_revelle.all.mb58.gz 29.19MB Kongsberg multibeam vendor format
0186_20141103_012940_revelle.all.mb58.gz 29.26MB Kongsberg multibeam vendor format
0187_20141103_015928_revelle.all.mb58.gz 29.78MB Kongsberg multibeam vendor format
0188_20141103_022938_revelle.all.mb58.gz 29.59MB Kongsberg multibeam vendor format
0189_20141103_025929_revelle.all.mb58.gz 29.94MB Kongsberg multibeam vendor format
0190_20141103_032934_revelle.all.mb58.gz 29.93MB Kongsberg multibeam vendor format
0191_20141103_035933_revelle.all.mb58.gz 29.03MB Kongsberg multibeam vendor format
0192_20141103_043409_revelle.all.mb58.gz 29.69MB Kongsberg multibeam vendor format
0193_20141103_050359_revelle.all.mb58.gz 29.65MB Kongsberg multibeam vendor format
0194_20141103_053344_revelle.all.mb58.gz 29.94MB Kongsberg multibeam vendor format
0195_20141103_060400_revelle.all.mb58.gz 29.33MB Kongsberg multibeam vendor format
0196_20141103_063355_revelle.all.mb58.gz 29.25MB Kongsberg multibeam vendor format
0197_20141103_070405_revelle.all.mb58.gz 29.26MB Kongsberg multibeam vendor format
0198_20141103_073343_revelle.all.mb58.gz 29.65MB Kongsberg multibeam vendor format
0199_20141103_080401_revelle.all.mb58.gz 28.97MB Kongsberg multibeam vendor format
0200_20141103_083346_revelle.all.mb58.gz 29.40MB Kongsberg multibeam vendor format
0201_20141103_090348_revelle.all.mb58.gz 29.56MB Kongsberg multibeam vendor format
0202_20141103_093355_revelle.all.mb58.gz 29.33MB Kongsberg multibeam vendor format
0203_20141103_100357_revelle.all.mb58.gz 28.72MB Kongsberg multibeam vendor format
0204_20141103_103343_revelle.all.mb58.gz 28.70MB Kongsberg multibeam vendor format
0205_20141103_110345_revelle.all.mb58.gz 22.61MB Kongsberg multibeam vendor format
0206_20141103_155344_revelle.all.mb58.gz 28.85MB Kongsberg multibeam vendor format
0207_20141103_162337_revelle.all.mb58.gz 28.92MB Kongsberg multibeam vendor format
0208_20141103_165346_revelle.all.mb58.gz 28.74MB Kongsberg multibeam vendor format
0209_20141103_172336_revelle.all.mb58.gz 28.79MB Kongsberg multibeam vendor format
0210_20141103_175338_revelle.all.mb58.gz 28.69MB Kongsberg multibeam vendor format
0211_20141103_182330_revelle.all.mb58.gz 28.77MB Kongsberg multibeam vendor format
0212_20141103_185345_revelle.all.mb58.gz 29.03MB Kongsberg multibeam vendor format
0213_20141103_192342_revelle.all.mb58.gz 28.97MB Kongsberg multibeam vendor format
0214_20141103_195337_revelle.all.mb58.gz 28.93MB Kongsberg multibeam vendor format
0215_20141103_202331_revelle.all.mb58.gz 29.51MB Kongsberg multibeam vendor format
0216_20141103_205345_revelle.all.mb58.gz 29.36MB Kongsberg multibeam vendor format
0217_20141103_212338_revelle.all.mb58.gz 29.78MB Kongsberg multibeam vendor format
0218_20141103_215350_revelle.all.mb58.gz 29.24MB Kongsberg multibeam vendor format
0219_20141103_222329_revelle.all.mb58.gz 29.95MB Kongsberg multibeam vendor format
0220_20141103_225343_revelle.all.mb58.gz 29.88MB Kongsberg multibeam vendor format
0221_20141103_232351_revelle.all.mb58.gz 29.50MB Kongsberg multibeam vendor format
0222_20141103_235347_revelle.all.mb58.gz 29.24MB Kongsberg multibeam vendor format
0223_20141104_002333_revelle.all.mb58.gz 29.34MB Kongsberg multibeam vendor format
0224_20141104_005334_revelle.all.mb58.gz 29.17MB Kongsberg multibeam vendor format
0225_20141104_012340_revelle.all.mb58.gz 29.08MB Kongsberg multibeam vendor format
0226_20141104_015349_revelle.all.mb58.gz 28.52MB Kongsberg multibeam vendor format
0227_20141104_022340_revelle.all.mb58.gz 28.80MB Kongsberg multibeam vendor format
0228_20141104_025345_revelle.all.mb58.gz 28.72MB Kongsberg multibeam vendor format
0229_20141104_032337_revelle.all.mb58.gz 29.30MB Kongsberg multibeam vendor format
0230_20141104_035337_revelle.all.mb58.gz 29.57MB Kongsberg multibeam vendor format
0231_20141104_042343_revelle.all.mb58.gz 29.20MB Kongsberg multibeam vendor format
0232_20141104_045336_revelle.all.mb58.gz 29.76MB Kongsberg multibeam vendor format
0233_20141104_052339_revelle.all.mb58.gz 21.05MB Kongsberg multibeam vendor format
0234_20141104_125733_revelle.all.mb58.gz 21.98MB Kongsberg multibeam vendor format
0237_20141104_132306_revelle.all.mb58.gz 29.55MB Kongsberg multibeam vendor format
0238_20141104_135253_revelle.all.mb58.gz 10.43MB Kongsberg multibeam vendor format
0239_20141104_172532_revelle.all.mb58.gz 305.7KB Kongsberg multibeam vendor format
0240_20141104_172547_revelle.all.mb58.gz 29.60MB Kongsberg multibeam vendor format
0241_20141104_175551_revelle.all.mb58.gz 28.96MB Kongsberg multibeam vendor format
0242_20141104_182606_revelle.all.mb58.gz 28.79MB Kongsberg multibeam vendor format
0243_20141104_185610_revelle.all.mb58.gz 28.13MB Kongsberg multibeam vendor format
0244_20141104_192600_revelle.all.mb58.gz 16.38MB Kongsberg multibeam vendor format
0245_20141104_195816_revelle.all.mb58.gz 28.39MB Kongsberg multibeam vendor format
0246_20141104_202815_revelle.all.mb58.gz 28.19MB Kongsberg multibeam vendor format
0247_20141104_205805_revelle.all.mb58.gz 28.43MB Kongsberg multibeam vendor format
0248_20141104_212804_revelle.all.mb58.gz 28.26MB Kongsberg multibeam vendor format
0249_20141104_215803_revelle.all.mb58.gz 28.60MB Kongsberg multibeam vendor format
0250_20141104_222813_revelle.all.mb58.gz 25.66MB Kongsberg multibeam vendor format
0251_20141104_225817_revelle.all.mb58.gz 7.88MB Kongsberg multibeam vendor format
0252_20141104_231731_revelle.all.mb58.gz 6.56MB Kongsberg multibeam vendor format
0253_20141105_024359_revelle.all.mb58.gz 29.83MB Kongsberg multibeam vendor format
0254_20141105_031416_revelle.all.mb58.gz 29.75MB Kongsberg multibeam vendor format
0255_20141105_034412_revelle.all.mb58.gz 29.50MB Kongsberg multibeam vendor format
0256_20141105_041403_revelle.all.mb58.gz 29.64MB Kongsberg multibeam vendor format
0257_20141105_044407_revelle.all.mb58.gz 29.73MB Kongsberg multibeam vendor format
0258_20141105_051400_revelle.all.mb58.gz 29.96MB Kongsberg multibeam vendor format
0259_20141105_054414_revelle.all.mb58.gz 29.61MB Kongsberg multibeam vendor format
0260_20141105_061400_revelle.all.mb58.gz 29.93MB Kongsberg multibeam vendor format
0261_20141105_064356_revelle.all.mb58.gz 30.45MB Kongsberg multibeam vendor format
0262_20141105_071411_revelle.all.mb58.gz 29.56MB Kongsberg multibeam vendor format
0263_20141105_074406_revelle.all.mb58.gz 30.46MB Kongsberg multibeam vendor format
0264_20141105_081406_revelle.all.mb58.gz 28.65MB Kongsberg multibeam vendor format
0265_20141105_084403_revelle.all.mb58.gz 29.14MB Kongsberg multibeam vendor format
0266_20141105_091413_revelle.all.mb58.gz 10.98MB Kongsberg multibeam vendor format
0267_20141105_132430_revelle.all.mb58.gz 24.16MB Kongsberg multibeam vendor format
0268_20141105_183203_revelle.all.mb58.gz 28.55MB Kongsberg multibeam vendor format
0269_20141105_190149_revelle.all.mb58.gz 29.67MB Kongsberg multibeam vendor format
0270_20141105_193140_revelle.all.mb58.gz 31.48MB Kongsberg multibeam vendor format
0271_20141105_200148_revelle.all.mb58.gz 31.35MB Kongsberg multibeam vendor format
0272_20141105_203144_revelle.all.mb58.gz 30.55MB Kongsberg multibeam vendor format
0273_20141105_210136_revelle.all.mb58.gz 37.32MB Kongsberg multibeam vendor format
0274_20141105_213145_revelle.all.mb58.gz 31.52MB Kongsberg multibeam vendor format
0275_20141105_220137_revelle.all.mb58.gz 31.16MB Kongsberg multibeam vendor format
0276_20141105_223141_revelle.all.mb58.gz 30.62MB Kongsberg multibeam vendor format
0277_20141105_230150_revelle.all.mb58.gz 30.47MB Kongsberg multibeam vendor format
0278_20141105_233145_revelle.all.mb58.gz 32.05MB Kongsberg multibeam vendor format
0279_20141106_000148_revelle.all.mb58.gz 31.42MB Kongsberg multibeam vendor format
0280_20141106_003140_revelle.all.mb58.gz 33.44MB Kongsberg multibeam vendor format
0281_20141106_010139_revelle.all.mb58.gz 31.34MB Kongsberg multibeam vendor format
0282_20141106_013145_revelle.all.mb58.gz 31.10MB Kongsberg multibeam vendor format
0283_20141106_020139_revelle.all.mb58.gz 31.22MB Kongsberg multibeam vendor format
0284_20141106_023143_revelle.all.mb58.gz 31.34MB Kongsberg multibeam vendor format
0285_20141106_030137_revelle.all.mb58.gz 31.59MB Kongsberg multibeam vendor format
0286_20141106_033143_revelle.all.mb58.gz 31.41MB Kongsberg multibeam vendor format
0287_20141106_040145_revelle.all.mb58.gz 31.07MB Kongsberg multibeam vendor format
0288_20141106_043138_revelle.all.mb58.gz 30.80MB Kongsberg multibeam vendor format
0289_20141106_050145_revelle.all.mb58.gz 30.55MB Kongsberg multibeam vendor format
0290_20141106_053137_revelle.all.mb58.gz 31.27MB Kongsberg multibeam vendor format
0291_20141106_060149_revelle.all.mb58.gz 32.22MB Kongsberg multibeam vendor format
0292_20141106_063140_revelle.all.mb58.gz 4.77MB Kongsberg multibeam vendor format
0293_20141106_141231_revelle.all.mb58.gz 30.73MB Kongsberg multibeam vendor format
0294_20141106_144224_revelle.all.mb58.gz 30.47MB Kongsberg multibeam vendor format
0295_20141106_151214_revelle.all.mb58.gz 31.25MB Kongsberg multibeam vendor format
0296_20141106_154216_revelle.all.mb58.gz 30.26MB Kongsberg multibeam vendor format
0297_20141106_161218_revelle.all.mb58.gz 30.33MB Kongsberg multibeam vendor format
0298_20141106_164206_revelle.all.mb58.gz 30.87MB Kongsberg multibeam vendor format
0299_20141106_171212_revelle.all.mb58.gz 30.59MB Kongsberg multibeam vendor format
0300_20141106_174205_revelle.all.mb58.gz 30.87MB Kongsberg multibeam vendor format
0301_20141106_181213_revelle.all.mb58.gz 30.59MB Kongsberg multibeam vendor format
0302_20141106_184205_revelle.all.mb58.gz 30.84MB Kongsberg multibeam vendor format
0303_20141106_191212_revelle.all.mb58.gz 30.86MB Kongsberg multibeam vendor format
0304_20141106_194222_revelle.all.mb58.gz 30.42MB Kongsberg multibeam vendor format
0305_20141106_201207_revelle.all.mb58.gz 30.71MB Kongsberg multibeam vendor format
0306_20141106_204209_revelle.all.mb58.gz 30.80MB Kongsberg multibeam vendor format
0307_20141106_211204_revelle.all.mb58.gz 30.76MB Kongsberg multibeam vendor format
0308_20141106_214206_revelle.all.mb58.gz 30.74MB Kongsberg multibeam vendor format
0309_20141106_221208_revelle.all.mb58.gz 30.56MB Kongsberg multibeam vendor format
0310_20141106_224205_revelle.all.mb58.gz 30.57MB Kongsberg multibeam vendor format
0311_20141106_231209_revelle.all.mb58.gz 30.28MB Kongsberg multibeam vendor format
0312_20141106_234221_revelle.all.mb58.gz 30.44MB Kongsberg multibeam vendor format
0313_20141107_001212_revelle.all.mb58.gz 29.81MB Kongsberg multibeam vendor format
0314_20141107_004211_revelle.all.mb58.gz 29.28MB Kongsberg multibeam vendor format
0315_20141107_011202_revelle.all.mb58.gz 29.75MB Kongsberg multibeam vendor format
0316_20141107_014224_revelle.all.mb58.gz 29.16MB Kongsberg multibeam vendor format
0317_20141107_021217_revelle.all.mb58.gz 29.06MB Kongsberg multibeam vendor format
0318_20141107_024216_revelle.all.mb58.gz 28.16MB Kongsberg multibeam vendor format
0319_20141107_031114_revelle.all.mb58.gz 372.2KB Kongsberg multibeam vendor format
0320_20141107_141047_revelle.all.mb58.gz 28.58MB Kongsberg multibeam vendor format
0321_20141107_144050_revelle.all.mb58.gz 27.93MB Kongsberg multibeam vendor format
0322_20141107_151039_revelle.all.mb58.gz 27.20MB Kongsberg multibeam vendor format
0323_20141107_154037_revelle.all.mb58.gz 28.17MB Kongsberg multibeam vendor format
0324_20141107_161048_revelle.all.mb58.gz 27.79MB Kongsberg multibeam vendor format
0325_20141107_164040_revelle.all.mb58.gz 27.22MB Kongsberg multibeam vendor format
0326_20141107_171044_revelle.all.mb58.gz 28.11MB Kongsberg multibeam vendor format
0327_20141107_174050_revelle.all.mb58.gz 27.85MB Kongsberg multibeam vendor format
0328_20141107_181042_revelle.all.mb58.gz 27.28MB Kongsberg multibeam vendor format
0329_20141107_184051_revelle.all.mb58.gz 27.49MB Kongsberg multibeam vendor format
0330_20141107_191052_revelle.all.mb58.gz 27.42MB Kongsberg multibeam vendor format
0331_20141107_194036_revelle.all.mb58.gz 27.64MB Kongsberg multibeam vendor format
0332_20141107_201048_revelle.all.mb58.gz 27.95MB Kongsberg multibeam vendor format
0333_20141107_204050_revelle.all.mb58.gz 27.94MB Kongsberg multibeam vendor format
0334_20141107_211040_revelle.all.mb58.gz 28.19MB Kongsberg multibeam vendor format
0335_20141107_214035_revelle.all.mb58.gz 28.63MB Kongsberg multibeam vendor format
0336_20141107_221033_revelle.all.mb58.gz 28.70MB Kongsberg multibeam vendor format
0337_20141107_224042_revelle.all.mb58.gz 29.01MB Kongsberg multibeam vendor format
0338_20141107_231033_revelle.all.mb58.gz 29.16MB Kongsberg multibeam vendor format
0339_20141107_234036_revelle.all.mb58.gz 29.93MB Kongsberg multibeam vendor format
0340_20141108_001043_revelle.all.mb58.gz 29.31MB Kongsberg multibeam vendor format
0341_20141108_004040_revelle.all.mb58.gz 29.01MB Kongsberg multibeam vendor format
0342_20141108_011035_revelle.all.mb58.gz 29.12MB Kongsberg multibeam vendor format
0343_20141108_014052_revelle.all.mb58.gz 28.33MB Kongsberg multibeam vendor format
0344_20141108_021040_revelle.all.mb58.gz 7.18MB Kongsberg multibeam vendor format
0345_20141108_123234_revelle.all.mb58.gz 28.55MB Kongsberg multibeam vendor format
0346_20141108_130221_revelle.all.mb58.gz 28.83MB Kongsberg multibeam vendor format
0347_20141108_133227_revelle.all.mb58.gz 28.48MB Kongsberg multibeam vendor format
0348_20141108_140211_revelle.all.mb58.gz 28.87MB Kongsberg multibeam vendor format
0349_20141108_143212_revelle.all.mb58.gz 28.77MB Kongsberg multibeam vendor format
0350_20141108_150210_revelle.all.mb58.gz 29.05MB Kongsberg multibeam vendor format
0351_20141108_153218_revelle.all.mb58.gz 28.78MB Kongsberg multibeam vendor format
0352_20141108_160212_revelle.all.mb58.gz 28.88MB Kongsberg multibeam vendor format
0353_20141108_163209_revelle.all.mb58.gz 29.25MB Kongsberg multibeam vendor format
0354_20141108_170221_revelle.all.mb58.gz 28.89MB Kongsberg multibeam vendor format
0355_20141108_173217_revelle.all.mb58.gz 28.97MB Kongsberg multibeam vendor format
0356_20141108_180216_revelle.all.mb58.gz 29.11MB Kongsberg multibeam vendor format
0357_20141108_183215_revelle.all.mb58.gz 29.07MB Kongsberg multibeam vendor format
0358_20141108_190218_revelle.all.mb58.gz 29.10MB Kongsberg multibeam vendor format
0359_20141108_193221_revelle.all.mb58.gz 28.85MB Kongsberg multibeam vendor format
0360_20141108_200214_revelle.all.mb58.gz 29.10MB Kongsberg multibeam vendor format
0361_20141108_203220_revelle.all.mb58.gz 28.92MB Kongsberg multibeam vendor format
0362_20141108_210212_revelle.all.mb58.gz 29.13MB Kongsberg multibeam vendor format
0363_20141108_213223_revelle.all.mb58.gz 28.65MB Kongsberg multibeam vendor format
0364_20141108_220206_revelle.all.mb58.gz 28.95MB Kongsberg multibeam vendor format
0365_20141108_223206_revelle.all.mb58.gz 29.13MB Kongsberg multibeam vendor format
0366_20141108_230218_revelle.all.mb58.gz 28.82MB Kongsberg multibeam vendor format
0367_20141108_233207_revelle.all.mb58.gz 28.95MB Kongsberg multibeam vendor format
0368_20141109_000205_revelle.all.mb58.gz 29.03MB Kongsberg multibeam vendor format
0369_20141109_003211_revelle.all.mb58.gz 29.30MB Kongsberg multibeam vendor format
0370_20141109_010232_revelle.all.mb58.gz 28.81MB Kongsberg multibeam vendor format
0371_20141109_013224_revelle.all.mb58.gz 29.29MB Kongsberg multibeam vendor format
0372_20141109_020242_revelle.all.mb58.gz 28.84MB Kongsberg multibeam vendor format
0373_20141109_023228_revelle.all.mb58.gz 28.93MB Kongsberg multibeam vendor format
0374_20141109_030224_revelle.all.mb58.gz 29.19MB Kongsberg multibeam vendor format
0375_20141109_033235_revelle.all.mb58.gz 28.90MB Kongsberg multibeam vendor format
0376_20141109_040221_revelle.all.mb58.gz 29.40MB Kongsberg multibeam vendor format
0377_20141109_043238_revelle.all.mb58.gz 29.41MB Kongsberg multibeam vendor format
0378_20141109_050240_revelle.all.mb58.gz 28.88MB Kongsberg multibeam vendor format
0379_20141109_053222_revelle.all.mb58.gz 29.20MB Kongsberg multibeam vendor format
0380_20141109_060230_revelle.all.mb58.gz 29.02MB Kongsberg multibeam vendor format
0381_20141109_063231_revelle.all.mb58.gz 28.77MB Kongsberg multibeam vendor format
0382_20141109_070224_revelle.all.mb58.gz 28.93MB Kongsberg multibeam vendor format
0383_20141109_073236_revelle.all.mb58.gz 28.60MB Kongsberg multibeam vendor format
0384_20141109_080233_revelle.all.mb58.gz 28.52MB Kongsberg multibeam vendor format
0385_20141109_083239_revelle.all.mb58.gz 28.51MB Kongsberg multibeam vendor format
0386_20141109_090239_revelle.all.mb58.gz 28.28MB Kongsberg multibeam vendor format
0387_20141109_093226_revelle.all.mb58.gz 28.53MB Kongsberg multibeam vendor format
0388_20141109_100235_revelle.all.mb58.gz 28.24MB Kongsberg multibeam vendor format
0389_20141109_103237_revelle.all.mb58.gz 28.33MB Kongsberg multibeam vendor format
0390_20141109_110239_revelle.all.mb58.gz 4.71MB Kongsberg multibeam vendor format
0391_20141109_201458_revelle.all.mb58.gz 28.08MB Kongsberg multibeam vendor format
0392_20141109_204439_revelle.all.mb58.gz 28.49MB Kongsberg multibeam vendor format
0393_20141109_211450_revelle.all.mb58.gz 28.37MB Kongsberg multibeam vendor format
0394_20141109_214458_revelle.all.mb58.gz 28.11MB Kongsberg multibeam vendor format
0395_20141109_221442_revelle.all.mb58.gz 28.54MB Kongsberg multibeam vendor format
0396_20141109_224458_revelle.all.mb58.gz 28.31MB Kongsberg multibeam vendor format
0397_20141109_231500_revelle.all.mb58.gz 28.21MB Kongsberg multibeam vendor format
0398_20141109_234502_revelle.all.mb58.gz 27.87MB Kongsberg multibeam vendor format
0399_20141110_001437_revelle.all.mb58.gz 28.11MB Kongsberg multibeam vendor format
0400_20141110_004450_revelle.all.mb58.gz 28.24MB Kongsberg multibeam vendor format
0401_20141110_011438_revelle.all.mb58.gz 28.67MB Kongsberg multibeam vendor format
0402_20141110_014449_revelle.all.mb58.gz 28.80MB Kongsberg multibeam vendor format
0403_20141110_021453_revelle.all.mb58.gz 28.90MB Kongsberg multibeam vendor format
0404_20141110_024456_revelle.all.mb58.gz 28.51MB Kongsberg multibeam vendor format
0405_20141110_031453_revelle.all.mb58.gz 28.04MB Kongsberg multibeam vendor format
0406_20141110_034436_revelle.all.mb58.gz 28.56MB Kongsberg multibeam vendor format
0407_20141110_041459_revelle.all.mb58.gz 26.85MB Kongsberg multibeam vendor format
0408_20141110_135309_revelle.all.mb58.gz 27.78MB Kongsberg multibeam vendor format
0409_20141110_142247_revelle.all.mb58.gz 10.83MB Kongsberg multibeam vendor format
0409_20141110_144005_revelle.all.mb58.gz 28.14MB Kongsberg multibeam vendor format
0410_20141110_150952_revelle.all.mb58.gz 28.85MB Kongsberg multibeam vendor format
0411_20141110_153950_revelle.all.mb58.gz 28.49MB Kongsberg multibeam vendor format
0412_20141110_160952_revelle.all.mb58.gz 28.24MB Kongsberg multibeam vendor format
0413_20141110_163953_revelle.all.mb58.gz 27.59MB Kongsberg multibeam vendor format
0414_20141110_170951_revelle.all.mb58.gz 26.52MB Kongsberg multibeam vendor format
0415_20141110_173949_revelle.all.mb58.gz 26.41MB Kongsberg multibeam vendor format
0416_20141110_180946_revelle.all.mb58.gz 28.25MB Kongsberg multibeam vendor format
0417_20141110_183944_revelle.all.mb58.gz 28.20MB Kongsberg multibeam vendor format
0418_20141110_190945_revelle.all.mb58.gz 27.78MB Kongsberg multibeam vendor format
0419_20141110_193955_revelle.all.mb58.gz 29.05MB Kongsberg multibeam vendor format
0420_20141110_200950_revelle.all.mb58.gz 27.38MB Kongsberg multibeam vendor format
0421_20141110_203938_revelle.all.mb58.gz 27.59MB Kongsberg multibeam vendor format
0422_20141110_210952_revelle.all.mb58.gz 27.91MB Kongsberg multibeam vendor format
0423_20141110_213950_revelle.all.mb58.gz 28.01MB Kongsberg multibeam vendor format
0424_20141110_220943_revelle.all.mb58.gz 29.76MB Kongsberg multibeam vendor format
0425_20141110_223940_revelle.all.mb58.gz 28.69MB Kongsberg multibeam vendor format
0426_20141110_230949_revelle.all.mb58.gz 29.56MB Kongsberg multibeam vendor format
0427_20141110_233942_revelle.all.mb58.gz 30.57MB Kongsberg multibeam vendor format
0428_20141111_000946_revelle.all.mb58.gz 30.19MB Kongsberg multibeam vendor format
0429_20141111_003950_revelle.all.mb58.gz 30.10MB Kongsberg multibeam vendor format
0430_20141111_010950_revelle.all.mb58.gz 30.13MB Kongsberg multibeam vendor format
0431_20141111_013949_revelle.all.mb58.gz 29.54MB Kongsberg multibeam vendor format
0432_20141111_121421_revelle.all.mb58.gz 28.69MB Kongsberg multibeam vendor format
0433_20141111_124405_revelle.all.mb58.gz 29.75MB Kongsberg multibeam vendor format
0434_20141111_131358_revelle.all.mb58.gz 30.44MB Kongsberg multibeam vendor format
0435_20141111_134413_revelle.all.mb58.gz 29.95MB Kongsberg multibeam vendor format
0436_20141111_141403_revelle.all.mb58.gz 29.97MB Kongsberg multibeam vendor format
0437_20141111_144406_revelle.all.mb58.gz 30.04MB Kongsberg multibeam vendor format
0438_20141111_151412_revelle.all.mb58.gz 29.90MB Kongsberg multibeam vendor format
0439_20141111_154357_revelle.all.mb58.gz 30.64MB Kongsberg multibeam vendor format
0440_20141111_161415_revelle.all.mb58.gz 29.80MB Kongsberg multibeam vendor format
0441_20141111_164401_revelle.all.mb58.gz 30.21MB Kongsberg multibeam vendor format
0442_20141111_171408_revelle.all.mb58.gz 30.38MB Kongsberg multibeam vendor format
0443_20141111_174413_revelle.all.mb58.gz 29.90MB Kongsberg multibeam vendor format
0444_20141111_181359_revelle.all.mb58.gz 30.29MB Kongsberg multibeam vendor format
0445_20141111_184406_revelle.all.mb58.gz 30.20MB Kongsberg multibeam vendor format
0446_20141111_191413_revelle.all.mb58.gz 29.91MB Kongsberg multibeam vendor format
0447_20141111_194400_revelle.all.mb58.gz 16.66MB Kongsberg multibeam vendor format
0447_20141111_200132_revelle.all.mb58.gz 29.79MB Kongsberg multibeam vendor format
0448_20141111_203120_revelle.all.mb58.gz 29.85MB Kongsberg multibeam vendor format
0449_20141111_210127_revelle.all.mb58.gz 18.96MB Kongsberg multibeam vendor format
0450_20141112_045825_revelle.all.mb58.gz 30.09MB Kongsberg multibeam vendor format
0451_20141112_052823_revelle.all.mb58.gz 29.86MB Kongsberg multibeam vendor format
0452_20141112_055813_revelle.all.mb58.gz 30.09MB Kongsberg multibeam vendor format
0453_20141112_062812_revelle.all.mb58.gz 30.18MB Kongsberg multibeam vendor format
0454_20141112_065818_revelle.all.mb58.gz 30.34MB Kongsberg multibeam vendor format
0455_20141112_072814_revelle.all.mb58.gz 30.53MB Kongsberg multibeam vendor format
0456_20141112_075814_revelle.all.mb58.gz 30.13MB Kongsberg multibeam vendor format
0457_20141112_082805_revelle.all.mb58.gz 29.96MB Kongsberg multibeam vendor format
0458_20141112_085804_revelle.all.mb58.gz 30.26MB Kongsberg multibeam vendor format
0459_20141112_092816_revelle.all.mb58.gz 30.08MB Kongsberg multibeam vendor format
0460_20141112_095816_revelle.all.mb58.gz 29.77MB Kongsberg multibeam vendor format
0461_20141112_102812_revelle.all.mb58.gz 30.04MB Kongsberg multibeam vendor format
0462_20141112_105817_revelle.all.mb58.gz 1.88MB Kongsberg multibeam vendor format
0463_20141112_232548_revelle.all.mb58.gz 27.20MB Kongsberg multibeam vendor format
0464_20141112_235526_revelle.all.mb58.gz 27.24MB Kongsberg multibeam vendor format
0465_20141113_002542_revelle.all.mb58.gz 28.87MB Kongsberg multibeam vendor format
0466_20141113_005540_revelle.all.mb58.gz 29.41MB Kongsberg multibeam vendor format
0467_20141113_012530_revelle.all.mb58.gz 29.69MB Kongsberg multibeam vendor format
0468_20141113_015531_revelle.all.mb58.gz 27.13MB Kongsberg multibeam vendor format
0469_20141113_022528_revelle.all.mb58.gz 29.20MB Kongsberg multibeam vendor format
0470_20141113_025526_revelle.all.mb58.gz 29.13MB Kongsberg multibeam vendor format
0471_20141113_032534_revelle.all.mb58.gz 26.86MB Kongsberg multibeam vendor format
0472_20141113_035540_revelle.all.mb58.gz 26.64MB Kongsberg multibeam vendor format
0473_20141113_042527_revelle.all.mb58.gz 27.15MB Kongsberg multibeam vendor format
0474_20141113_045525_revelle.all.mb58.gz 28.89MB Kongsberg multibeam vendor format
0475_20141113_052541_revelle.all.mb58.gz 28.22MB Kongsberg multibeam vendor format
0476_20141113_055525_revelle.all.mb58.gz 29.45MB Kongsberg multibeam vendor format
0477_20141113_062534_revelle.all.mb58.gz 28.88MB Kongsberg multibeam vendor format
0478_20141113_065539_revelle.all.mb58.gz 29.34MB Kongsberg multibeam vendor format
0479_20141113_072526_revelle.all.mb58.gz 28.91MB Kongsberg multibeam vendor format
0480_20141113_075526_revelle.all.mb58.gz 29.23MB Kongsberg multibeam vendor format
0481_20141113_082536_revelle.all.mb58.gz 30.16MB Kongsberg multibeam vendor format
0482_20141113_085534_revelle.all.mb58.gz 26.34MB Kongsberg multibeam vendor format
0483_20141113_092526_revelle.all.mb58.gz 25.40MB Kongsberg multibeam vendor format
0484_20141113_095527_revelle.all.mb58.gz 25.08MB Kongsberg multibeam vendor format
0485_20141113_102526_revelle.all.mb58.gz 25.30MB Kongsberg multibeam vendor format
0486_20141113_105523_revelle.all.mb58.gz 26.05MB Kongsberg multibeam vendor format
0487_20141113_112538_revelle.all.mb58.gz 25.32MB Kongsberg multibeam vendor format
0488_20141113_115535_revelle.all.mb58.gz 27.68MB Kongsberg multibeam vendor format
0489_20141113_122527_revelle.all.mb58.gz 26.34MB Kongsberg multibeam vendor format
0490_20141113_125523_revelle.all.mb58.gz 27.44MB Kongsberg multibeam vendor format
0491_20141113_132536_revelle.all.mb58.gz 27.52MB Kongsberg multibeam vendor format
0492_20141113_135531_revelle.all.mb58.gz 27.82MB Kongsberg multibeam vendor format
0493_20141113_142529_revelle.all.mb58.gz 27.35MB Kongsberg multibeam vendor format
0494_20141113_145527_revelle.all.mb58.gz 29.70MB Kongsberg multibeam vendor format
0495_20141113_152533_revelle.all.mb58.gz 14.16MB Kongsberg multibeam vendor format
0496_20141113_190503_revelle.all.mb58.gz 25.58MB Kongsberg multibeam vendor format
0497_20141113_193444_revelle.all.mb58.gz 26.18MB Kongsberg multibeam vendor format
0498_20141113_200448_revelle.all.mb58.gz 28.39MB Kongsberg multibeam vendor format
0499_20141113_203500_revelle.all.mb58.gz 27.86MB Kongsberg multibeam vendor format
0500_20141113_210449_revelle.all.mb58.gz 11.79MB Kongsberg multibeam vendor format
0501_20141114_151151_revelle.all.mb58.gz 27.05MB Kongsberg multibeam vendor format
0502_20141114_154143_revelle.all.mb58.gz 11.21MB Kongsberg multibeam vendor format
0503_20141114_185655_revelle.all.mb58.gz 28.75MB Kongsberg multibeam vendor format
0504_20141114_192637_revelle.all.mb58.gz 29.48MB Kongsberg multibeam vendor format
0505_20141114_195642_revelle.all.mb58.gz 28.50MB Kongsberg multibeam vendor format
0506_20141114_202638_revelle.all.mb58.gz 29.62MB Kongsberg multibeam vendor format
0507_20141114_205644_revelle.all.mb58.gz 13.38MB Kongsberg multibeam vendor format
0508_20141115_073416_revelle.all.mb58.gz 29.55MB Kongsberg multibeam vendor format
0509_20141115_080354_revelle.all.mb58.gz 30.00MB Kongsberg multibeam vendor format
0510_20141115_083402_revelle.all.mb58.gz 29.95MB Kongsberg multibeam vendor format
0511_20141115_090401_revelle.all.mb58.gz 30.13MB Kongsberg multibeam vendor format
0512_20141115_093401_revelle.all.mb58.gz 30.22MB Kongsberg multibeam vendor format
0513_20141115_100407_revelle.all.mb58.gz 22.26MB Kongsberg multibeam vendor format
0514_20141116_080030_revelle.all.mb58.gz 29.65MB Kongsberg multibeam vendor format
0515_20141116_083014_revelle.all.mb58.gz 2.87MB Kongsberg multibeam vendor format
0516_20141116_180342_revelle.all.mb58.gz 245.4KB Kongsberg multibeam vendor format
0517_20141117_030815_revelle.all.mb58.gz 62.4KB Kongsberg multibeam vendor format
0518_20141117_050846_revelle.all.mb58.gz 29.76MB Kongsberg multibeam vendor format
0519_20141117_053841_revelle.all.mb58.gz 29.73MB Kongsberg multibeam vendor format
0520_20141117_060828_revelle.all.mb58.gz 29.84MB Kongsberg multibeam vendor format
0521_20141117_063835_revelle.all.mb58.gz 30.02MB Kongsberg multibeam vendor format
0522_20141117_070829_revelle.all.mb58.gz 30.57MB Kongsberg multibeam vendor format
0523_20141117_073831_revelle.all.mb58.gz 30.40MB Kongsberg multibeam vendor format
0524_20141117_080841_revelle.all.mb58.gz 29.74MB Kongsberg multibeam vendor format
0525_20141117_083827_revelle.all.mb58.gz 29.78MB Kongsberg multibeam vendor format
0526_20141117_090824_revelle.all.mb58.gz 8.75MB Kongsberg multibeam vendor format
0527_20141117_152952_revelle.all.mb58.gz 29.72MB Kongsberg multibeam vendor format
0528_20141117_155938_revelle.all.mb58.gz 29.92MB Kongsberg multibeam vendor format
0529_20141117_162933_revelle.all.mb58.gz 29.93MB Kongsberg multibeam vendor format
0530_20141117_165929_revelle.all.mb58.gz 30.27MB Kongsberg multibeam vendor format
0531_20141117_172945_revelle.all.mb58.gz 29.94MB Kongsberg multibeam vendor format
0532_20141117_175939_revelle.all.mb58.gz 30.18MB Kongsberg multibeam vendor format
0533_20141117_182946_revelle.all.mb58.gz 29.94MB Kongsberg multibeam vendor format
0534_20141117_185945_revelle.all.mb58.gz 29.74MB Kongsberg multibeam vendor format
0535_20141117_192929_revelle.all.mb58.gz 30.09MB Kongsberg multibeam vendor format
0536_20141117_195936_revelle.all.mb58.gz 30.11MB Kongsberg multibeam vendor format
0537_20141117_202943_revelle.all.mb58.gz 29.80MB Kongsberg multibeam vendor format
0538_20141117_205929_revelle.all.mb58.gz 30.19MB Kongsberg multibeam vendor format
0539_20141117_212936_revelle.all.mb58.gz 3.18MB Kongsberg multibeam vendor format
0540_20141118_071715_revelle.all.mb58.gz 29.70MB Kongsberg multibeam vendor format
0541_20141118_074653_revelle.all.mb58.gz 30.06MB Kongsberg multibeam vendor format
0542_20141118_081700_revelle.all.mb58.gz 29.96MB Kongsberg multibeam vendor format
0543_20141118_084704_revelle.all.mb58.gz 29.96MB Kongsberg multibeam vendor format
0544_20141118_091709_revelle.all.mb58.gz 29.76MB Kongsberg multibeam vendor format
0545_20141118_094656_revelle.all.mb58.gz 29.92MB Kongsberg multibeam vendor format
0546_20141118_101656_revelle.all.mb58.gz 30.31MB Kongsberg multibeam vendor format
0547_20141118_104706_revelle.all.mb58.gz 30.17MB Kongsberg multibeam vendor format
0548_20141118_111706_revelle.all.mb58.gz 30.25MB Kongsberg multibeam vendor format
0549_20141118_114707_revelle.all.mb58.gz 30.05MB Kongsberg multibeam vendor format
0550_20141118_121657_revelle.all.mb58.gz 30.35MB Kongsberg multibeam vendor format
0551_20141118_124704_revelle.all.mb58.gz 30.04MB Kongsberg multibeam vendor format
0552_20141118_131657_revelle.all.mb58.gz 30.15MB Kongsberg multibeam vendor format
0553_20141118_134703_revelle.all.mb58.gz 30.18MB Kongsberg multibeam vendor format
0554_20141118_141705_revelle.all.mb58.gz 29.87MB Kongsberg multibeam vendor format
0555_20141118_144707_revelle.all.mb58.gz 29.53MB Kongsberg multibeam vendor format
0556_20141118_151654_revelle.all.mb58.gz 29.95MB Kongsberg multibeam vendor format
0557_20141118_154700_revelle.all.mb58.gz 30.08MB Kongsberg multibeam vendor format
0558_20141118_161707_revelle.all.mb58.gz 29.84MB Kongsberg multibeam vendor format
0559_20141118_164653_revelle.all.mb58.gz 30.19MB Kongsberg multibeam vendor format
0560_20141118_171657_revelle.all.mb58.gz 30.19MB Kongsberg multibeam vendor format
0561_20141118_174704_revelle.all.mb58.gz 29.74MB Kongsberg multibeam vendor format
0562_20141118_181651_revelle.all.mb58.gz 30.03MB Kongsberg multibeam vendor format
0563_20141118_184654_revelle.all.mb58.gz 30.09MB Kongsberg multibeam vendor format
0564_20141118_191701_revelle.all.mb58.gz 30.07MB Kongsberg multibeam vendor format
0565_20141118_194704_revelle.all.mb58.gz 29.75MB Kongsberg multibeam vendor format
0566_20141118_201651_revelle.all.mb58.gz 30.07MB Kongsberg multibeam vendor format
0567_20141118_204658_revelle.all.mb58.gz 30.05MB Kongsberg multibeam vendor format
0568_20141118_211704_revelle.all.mb58.gz 29.68MB Kongsberg multibeam vendor format
0569_20141118_214651_revelle.all.mb58.gz 30.10MB Kongsberg multibeam vendor format
0570_20141118_221657_revelle.all.mb58.gz 30.06MB Kongsberg multibeam vendor format
0571_20141118_224704_revelle.all.mb58.gz 29.75MB Kongsberg multibeam vendor format
0572_20141118_231650_revelle.all.mb58.gz 30.21MB Kongsberg multibeam vendor format
0573_20141118_234656_revelle.all.mb58.gz 25.99MB Kongsberg multibeam vendor format
0574_20141119_122902_revelle.all.mb58.gz 8.10MB Kongsberg multibeam vendor format
0575_20141119_124026_revelle.all.mb58.gz 29.76MB Kongsberg multibeam vendor format
0576_20141119_131023_revelle.all.mb58.gz 29.20MB Kongsberg multibeam vendor format
0577_20141119_134019_revelle.all.mb58.gz 29.55MB Kongsberg multibeam vendor format
0578_20141119_141021_revelle.all.mb58.gz 29.44MB Kongsberg multibeam vendor format
0579_20141119_144025_revelle.all.mb58.gz 29.31MB Kongsberg multibeam vendor format
0580_20141119_151021_revelle.all.mb58.gz 29.51MB Kongsberg multibeam vendor format
0581_20141119_154024_revelle.all.mb58.gz 29.48MB Kongsberg multibeam vendor format
0582_20141119_161037_revelle.all.mb58.gz 29.12MB Kongsberg multibeam vendor format
0583_20141119_164018_revelle.all.mb58.gz 29.30MB Kongsberg multibeam vendor format
0584_20141119_171035_revelle.all.mb58.gz 28.91MB Kongsberg multibeam vendor format
0585_20141119_174023_revelle.all.mb58.gz 29.32MB Kongsberg multibeam vendor format
0586_20141119_181025_revelle.all.mb58.gz 28.94MB Kongsberg multibeam vendor format
0587_20141119_184030_revelle.all.mb58.gz 29.34MB Kongsberg multibeam vendor format
0588_20141119_191027_revelle.all.mb58.gz 29.29MB Kongsberg multibeam vendor format
0589_20141119_194027_revelle.all.mb58.gz 29.68MB Kongsberg multibeam vendor format
0590_20141119_201020_revelle.all.mb58.gz 29.63MB Kongsberg multibeam vendor format
0591_20141119_204016_revelle.all.mb58.gz 29.55MB Kongsberg multibeam vendor format
0592_20141119_211016_revelle.all.mb58.gz 30.07MB Kongsberg multibeam vendor format
0593_20141119_214022_revelle.all.mb58.gz 29.88MB Kongsberg multibeam vendor format
0594_20141119_221033_revelle.all.mb58.gz 29.98MB Kongsberg multibeam vendor format
0595_20141119_224025_revelle.all.mb58.gz 30.79MB Kongsberg multibeam vendor format
0596_20141119_231028_revelle.all.mb58.gz 27.31MB Kongsberg multibeam vendor format
0597_20141119_234025_revelle.all.mb58.gz 26.33MB Kongsberg multibeam vendor format
0598_20141120_001027_revelle.all.mb58.gz 27.65MB Kongsberg multibeam vendor format
0599_20141120_004014_revelle.all.mb58.gz 32.05MB Kongsberg multibeam vendor format
0600_20141120_011016_revelle.all.mb58.gz 41.30MB Kongsberg multibeam vendor format
0601_20141120_014018_revelle.all.mb58.gz 34.37MB Kongsberg multibeam vendor format
0602_20141120_021014_revelle.all.mb58.gz 33.59MB Kongsberg multibeam vendor format
0603_20141120_024024_revelle.all.mb58.gz 33.69MB Kongsberg multibeam vendor format
0604_20141120_031022_revelle.all.mb58.gz 33.90MB Kongsberg multibeam vendor format
0605_20141120_034020_revelle.all.mb58.gz 32.67MB Kongsberg multibeam vendor format
0606_20141120_041016_revelle.all.mb58.gz 43.04MB Kongsberg multibeam vendor format
0607_20141120_044015_revelle.all.mb58.gz 43.56MB Kongsberg multibeam vendor format
0608_20141120_051017_revelle.all.mb58.gz 41.15MB Kongsberg multibeam vendor format
0609_20141120_054014_revelle.all.mb58.gz 33.58MB Kongsberg multibeam vendor format
0610_20141120_061015_revelle.all.mb58.gz 31.50MB Kongsberg multibeam vendor format
0611_20141120_064025_revelle.all.mb58.gz 30.74MB Kongsberg multibeam vendor format
0612_20141120_071025_revelle.all.mb58.gz 30.60MB Kongsberg multibeam vendor format
0613_20141120_074014_revelle.all.mb58.gz 30.88MB Kongsberg multibeam vendor format
0614_20141120_081027_revelle.all.mb58.gz 30.32MB Kongsberg multibeam vendor format
0615_20141120_084024_revelle.all.mb58.gz 29.44MB Kongsberg multibeam vendor format
0616_20141120_091028_revelle.all.mb58.gz 29.58MB Kongsberg multibeam vendor format
0617_20141120_094024_revelle.all.mb58.gz 29.62MB Kongsberg multibeam vendor format
0618_20141120_101037_revelle.all.mb58.gz 29.07MB Kongsberg multibeam vendor format
0619_20141120_104010_revelle.all.mb58.gz 29.07MB Kongsberg multibeam vendor format
0620_20141120_111028_revelle.all.mb58.gz 28.86MB Kongsberg multibeam vendor format
0621_20141120_114032_revelle.all.mb58.gz 29.33MB Kongsberg multibeam vendor format
0622_20141120_121030_revelle.all.mb58.gz 29.24MB Kongsberg multibeam vendor format
0623_20141120_124022_revelle.all.mb58.gz 29.60MB Kongsberg multibeam vendor format
0624_20141120_131020_revelle.all.mb58.gz 29.66MB Kongsberg multibeam vendor format
0625_20141120_134019_revelle.all.mb58.gz 29.87MB Kongsberg multibeam vendor format
0626_20141120_141026_revelle.all.mb58.gz 29.79MB Kongsberg multibeam vendor format
0627_20141120_144025_revelle.all.mb58.gz 30.42MB Kongsberg multibeam vendor format
0628_20141120_151018_revelle.all.mb58.gz 31.18MB Kongsberg multibeam vendor format
0629_20141120_154024_revelle.all.mb58.gz 30.68MB Kongsberg multibeam vendor format
0630_20141120_161020_revelle.all.mb58.gz 30.51MB Kongsberg multibeam vendor format
0631_20141120_164027_revelle.all.mb58.gz 30.43MB Kongsberg multibeam vendor format
0632_20141120_171009_revelle.all.mb58.gz 31.02MB Kongsberg multibeam vendor format
0633_20141120_174018_revelle.all.mb58.gz 31.37MB Kongsberg multibeam vendor format
0634_20141120_181010_revelle.all.mb58.gz 32.34MB Kongsberg multibeam vendor format
0635_20141120_184020_revelle.all.mb58.gz 32.16MB Kongsberg multibeam vendor format
0636_20141120_191015_revelle.all.mb58.gz 32.40MB Kongsberg multibeam vendor format
0637_20141120_194013_revelle.all.mb58.gz 32.57MB Kongsberg multibeam vendor format
0638_20141120_201011_revelle.all.mb58.gz 32.50MB Kongsberg multibeam vendor format
0639_20141120_204016_revelle.all.mb58.gz 32.49MB Kongsberg multibeam vendor format
0640_20141120_211017_revelle.all.mb58.gz 32.66MB Kongsberg multibeam vendor format
0641_20141120_214010_revelle.all.mb58.gz 33.50MB Kongsberg multibeam vendor format
0642_20141120_221008_revelle.all.mb58.gz 35.80MB Kongsberg multibeam vendor format
0643_20141120_224009_revelle.all.mb58.gz 44.06MB Kongsberg multibeam vendor format
0644_20141120_231013_revelle.all.mb58.gz 44.01MB Kongsberg multibeam vendor format
0645_20141120_234007_revelle.all.mb58.gz 37.14MB Kongsberg multibeam vendor format
0646_20141121_001010_revelle.all.mb58.gz 32.84MB Kongsberg multibeam vendor format
0647_20141121_004011_revelle.all.mb58.gz 32.99MB Kongsberg multibeam vendor format
0648_20141121_011018_revelle.all.mb58.gz 32.81MB Kongsberg multibeam vendor format
0649_20141121_014008_revelle.all.mb58.gz 33.10MB Kongsberg multibeam vendor format
0650_20141121_021019_revelle.all.mb58.gz 31.59MB Kongsberg multibeam vendor format
0651_20141121_024012_revelle.all.mb58.gz 33.17MB Kongsberg multibeam vendor format
0652_20141121_031013_revelle.all.mb58.gz 42.89MB Kongsberg multibeam vendor format
0653_20141121_034015_revelle.all.mb58.gz 35.88MB Kongsberg multibeam vendor format
0654_20141121_041008_revelle.all.mb58.gz 33.08MB Kongsberg multibeam vendor format
0655_20141121_044010_revelle.all.mb58.gz 33.13MB Kongsberg multibeam vendor format
0656_20141121_051017_revelle.all.mb58.gz 32.30MB Kongsberg multibeam vendor format
0657_20141121_054009_revelle.all.mb58.gz 32.82MB Kongsberg multibeam vendor format
0658_20141121_061020_revelle.all.mb58.gz 30.87MB Kongsberg multibeam vendor format
0659_20141121_064006_revelle.all.mb58.gz 32.19MB Kongsberg multibeam vendor format
0660_20141121_071017_revelle.all.mb58.gz 31.62MB Kongsberg multibeam vendor format
0661_20141121_074013_revelle.all.mb58.gz 31.24MB Kongsberg multibeam vendor format
0662_20141121_081015_revelle.all.mb58.gz 30.47MB Kongsberg multibeam vendor format
0663_20141121_084021_revelle.all.mb58.gz 30.28MB Kongsberg multibeam vendor format
0664_20141121_091011_revelle.all.mb58.gz 30.83MB Kongsberg multibeam vendor format
0665_20141121_094021_revelle.all.mb58.gz 30.78MB Kongsberg multibeam vendor format
0666_20141121_101017_revelle.all.mb58.gz 30.85MB Kongsberg multibeam vendor format
0667_20141121_104008_revelle.all.mb58.gz 32.18MB Kongsberg multibeam vendor format
0668_20141121_111004_revelle.all.mb58.gz 33.24MB Kongsberg multibeam vendor format
0669_20141121_114013_revelle.all.mb58.gz 32.86MB Kongsberg multibeam vendor format
0670_20141121_121007_revelle.all.mb58.gz 32.18MB Kongsberg multibeam vendor format
0671_20141121_124003_revelle.all.mb58.gz 31.60MB Kongsberg multibeam vendor format
0672_20141121_131002_revelle.all.mb58.gz 31.82MB Kongsberg multibeam vendor format
0673_20141121_134002_revelle.all.mb58.gz 32.24MB Kongsberg multibeam vendor format
0674_20141121_141016_revelle.all.mb58.gz 31.51MB Kongsberg multibeam vendor format
0675_20141121_144005_revelle.all.mb58.gz 32.35MB Kongsberg multibeam vendor format
0676_20141121_151013_revelle.all.mb58.gz 32.31MB Kongsberg multibeam vendor format
0677_20141121_154013_revelle.all.mb58.gz 31.87MB Kongsberg multibeam vendor format
0678_20141121_161014_revelle.all.mb58.gz 31.65MB Kongsberg multibeam vendor format
0679_20141121_164017_revelle.all.mb58.gz 31.55MB Kongsberg multibeam vendor format
0680_20141121_171001_revelle.all.mb58.gz 32.04MB Kongsberg multibeam vendor format
0681_20141121_174017_revelle.all.mb58.gz 31.36MB Kongsberg multibeam vendor format
0682_20141121_181005_revelle.all.mb58.gz 32.01MB Kongsberg multibeam vendor format
0683_20141121_184009_revelle.all.mb58.gz 31.48MB Kongsberg multibeam vendor format
0684_20141121_191009_revelle.all.mb58.gz 31.43MB Kongsberg multibeam vendor format
0685_20141121_194011_revelle.all.mb58.gz 31.84MB Kongsberg multibeam vendor format
0686_20141121_201006_revelle.all.mb58.gz 32.19MB Kongsberg multibeam vendor format
0687_20141121_204001_revelle.all.mb58.gz 31.10MB Kongsberg multibeam vendor format
0688_20141121_211004_revelle.all.mb58.gz 31.39MB Kongsberg multibeam vendor format
0689_20141121_214007_revelle.all.mb58.gz 32.29MB Kongsberg multibeam vendor format
0690_20141121_221009_revelle.all.mb58.gz 31.86MB Kongsberg multibeam vendor format
0691_20141121_223959_revelle.all.mb58.gz 31.66MB Kongsberg multibeam vendor format
0692_20141121_231000_revelle.all.mb58.gz 31.53MB Kongsberg multibeam vendor format
0693_20141121_234000_revelle.all.mb58.gz 32.17MB Kongsberg multibeam vendor format
0694_20141122_001007_revelle.all.mb58.gz 31.80MB Kongsberg multibeam vendor format
0695_20141122_003958_revelle.all.mb58.gz 31.91MB Kongsberg multibeam vendor format
0696_20141122_011012_revelle.all.mb58.gz 31.72MB Kongsberg multibeam vendor format
0697_20141122_014003_revelle.all.mb58.gz 31.61MB Kongsberg multibeam vendor format
0698_20141122_020958_revelle.all.mb58.gz 31.88MB Kongsberg multibeam vendor format
0699_20141122_023959_revelle.all.mb58.gz 32.26MB Kongsberg multibeam vendor format
0700_20141122_031011_revelle.all.mb58.gz 31.89MB Kongsberg multibeam vendor format
0701_20141122_033958_revelle.all.mb58.gz 31.66MB Kongsberg multibeam vendor format
0702_20141122_041002_revelle.all.mb58.gz 31.35MB Kongsberg multibeam vendor format
0703_20141122_044011_revelle.all.mb58.gz 31.22MB Kongsberg multibeam vendor format
0704_20141122_051011_revelle.all.mb58.gz 31.25MB Kongsberg multibeam vendor format
0705_20141122_054010_revelle.all.mb58.gz 31.02MB Kongsberg multibeam vendor format
0706_20141122_060959_revelle.all.mb58.gz 31.64MB Kongsberg multibeam vendor format
0707_20141122_064004_revelle.all.mb58.gz 32.01MB Kongsberg multibeam vendor format
0708_20141122_071009_revelle.all.mb58.gz 32.11MB Kongsberg multibeam vendor format
0709_20141122_074007_revelle.all.mb58.gz 32.70MB Kongsberg multibeam vendor format
0710_20141122_081008_revelle.all.mb58.gz 32.48MB Kongsberg multibeam vendor format
0711_20141122_084009_revelle.all.mb58.gz 31.54MB Kongsberg multibeam vendor format
0712_20141122_091002_revelle.all.mb58.gz 31.62MB Kongsberg multibeam vendor format
0713_20141122_094007_revelle.all.mb58.gz 30.99MB Kongsberg multibeam vendor format
0714_20141122_101005_revelle.all.mb58.gz 31.02MB Kongsberg multibeam vendor format
0715_20141122_104013_revelle.all.mb58.gz 30.64MB Kongsberg multibeam vendor format
0716_20141122_110958_revelle.all.mb58.gz 31.54MB Kongsberg multibeam vendor format
0717_20141122_113959_revelle.all.mb58.gz 31.94MB Kongsberg multibeam vendor format
0718_20141122_120957_revelle.all.mb58.gz 31.50MB Kongsberg multibeam vendor format
0719_20141122_124006_revelle.all.mb58.gz 31.94MB Kongsberg multibeam vendor format
0720_20141122_131004_revelle.all.mb58.gz 32.28MB Kongsberg multibeam vendor format
0721_20141122_134006_revelle.all.mb58.gz 32.44MB Kongsberg multibeam vendor format
0722_20141122_141005_revelle.all.mb58.gz 33.24MB Kongsberg multibeam vendor format
0723_20141122_143956_revelle.all.mb58.gz 32.39MB Kongsberg multibeam vendor format
0724_20141122_150954_revelle.all.mb58.gz 32.20MB Kongsberg multibeam vendor format
0725_20141122_154000_revelle.all.mb58.gz 32.23MB Kongsberg multibeam vendor format
0726_20141122_160957_revelle.all.mb58.gz 31.95MB Kongsberg multibeam vendor format
0727_20141122_163955_revelle.all.mb58.gz 32.41MB Kongsberg multibeam vendor format
0728_20141122_171001_revelle.all.mb58.gz 32.43MB Kongsberg multibeam vendor format
0729_20141122_174004_revelle.all.mb58.gz 31.98MB Kongsberg multibeam vendor format
0730_20141122_181005_revelle.all.mb58.gz 32.24MB Kongsberg multibeam vendor format
0731_20141122_183958_revelle.all.mb58.gz 32.33MB Kongsberg multibeam vendor format
0732_20141122_191003_revelle.all.mb58.gz 43.20MB Kongsberg multibeam vendor format
0733_20141122_193958_revelle.all.mb58.gz 43.65MB Kongsberg multibeam vendor format
0734_20141122_201001_revelle.all.mb58.gz 40.70MB Kongsberg multibeam vendor format
0735_20141122_203958_revelle.all.mb58.gz 41.96MB Kongsberg multibeam vendor format
0736_20141122_211000_revelle.all.mb58.gz 14.57MB Kongsberg multibeam vendor format

Metadata Files: 3

Files File Size Description
RR1412_Multibeam.xml NGDC created ISO metadata
em122_bag_info.tar.gz 47.2KB Additional cruise information
xbt_bag_info.tar.gz 5.0KB Additional cruise information

Ancillary Files: 1

Files File Size Description
xbt.tar.gz 1.57MB Expendable Bathythermograph (XBT) data